User: anonymous   Login
Location: Newark
(25.6108°S, 54.5803°W)
Time: 15:42:34
(UTC+00:00)
Language:

Courier 1B Rocket - Orbit

View from above orbital plane
View from above orbital plane
View from above satellite
View from above satellite

Ground track
Ground track

The orbit data is extracted from the following two-line orbital elements,

1    59U 60013B   20294.68055798 +.00000112 +00000-0 +27643-4 0  9999
2    59 028.2498 294.9416 0189036 257.2297 100.7060 13.52978835964087
Epoch (UTC): 20 October 2020 16:20:00
Eccentricity: 0.0189036
inclination: 28.2498°
perigee height: 920 km
apogee height: 1202 km
right ascension of ascending node: 294.9416°
argument of perigee: 257.2297°
revolutions per day: 13.52978835
mean anomaly at epoch: 100.7060°
orbit number at epoch: 96408

The dashed part of the orbit path shows where the satellite is in the earth's shadow,  

DLR